Location: Unspecified
(41.5516°N, 88.1098°W)
Time: 09:54:43
(UTC-06:00)

Cosmos 2058 - Visible Passes

Search period start: 20 December 2014 00:00
Search period end: 30 December 2014 00:00
Orbit: 568 x 593 km, 82.5° (Epoch: 19 December)

Date Brightness Start Highest point End Pass type
(mag) Time Alt. Az. Time Alt. Az. Time Alt. Az.
27 Dec 5.9 06:01:52 10° NE 06:03:38 12° ENE 06:05:23 10° E visible
28 Dec 5.7 06:06:09 10° NNE 06:08:54 17° ENE 06:11:37 10° ESE visible
29 Dec 5.3 06:10:48 10° NNE 06:14:07 23° ENE 06:17:26 10° SE visible
